Time,TemperatureF,DewpointF,PressureIn,WindDirection,WindDirectionDegrees,WindSpeedMPH,WindSpeedGustMPH,Humidity,HourlyPrecipIn,Conditions,Clouds,dailyrainin,SoftwareType,DateUTC
2013-01-22 00:04:00,44.5,38.4,30.17,NNW,344,0.0,0.0,79,0.00,,CLR,0.00,VWS V14.01,2013-01-22 06:04:00,
2013-01-22 00:09:00,44.3,38.2,30.17,NNW,344,0.0,0.0,79,0.00,,CLR,0.00,VWS V14.01,2013-01-22 06:09:00,
2013-01-22 00:14:00,44.1,38.0,30.16,NNW,344,0.0,0.0,79,0.00,,CLR,0.00,VWS V14.01,2013-01-22 06:14:00,
2013-01-22 00:19:00,43.8,37.7,30.16,NNW,344,0.0,0.0,79,0.00,,CLR,0.00,VWS V14.01,2013-01-22 06:19:00,
2013-01-22 00:24:00,43.6,37.5,30.16,NNW,344,0.0,0.0,79,0.00,,CLR,0.00,VWS V14.01,2013-01-22 06:24:00,
2013-01-22 00:29:00,43.6,37.5,30.17,NNW,344,0.0,0.0,79,0.00,,CLR,0.00,VWS V14.01,2013-01-22 06:29:00,
2013-01-22 00:35:00,43.3,37.2,30.17,NNW,344,0.0,0.0,79,0.00,,CLR,0.00,VWS V14.01,2013-01-22 06:35:00,
2013-01-22 00:40:00,43.1,37.4,30.17,NNW,344,0.0,0.0,80,0.00,,CLR,0.00,VWS V14.01,2013-01-22 06:40:00,
2013-01-22 00:45:00,43.1,37.7,30.17,NNW,344,0.0,0.0,81,0.00,,CLR,0.00,VWS V14.01,2013-01-22 06:45:00,
2013-01-22 00:50:00,43.1,37.7,30.17,NNW,344,0.0,0.0,81,0.00,,CLR,0.00,VWS V14.01,2013-01-22 06:50:00,
2013-01-22 00:55:00,42.9,37.5,30.17,NNW,344,0.0,0.0,81,0.00,,CLR,0.00,VWS V14.01,2013-01-22 06:55:00,
2013-01-22 01:00:00,42.9,37.5,30.17,NNW,344,0.0,0.0,81,0.00,,CLR,0.00,VWS V14.01,2013-01-22 07:00:00,
2013-01-22 01:05:00,42.8,37.4,30.17,NNW,344,0.0,0.0,81,0.00,,CLR,0.00,VWS V14.01,2013-01-22 07:05:00,
2013-01-22 01:10:00,42.8,37.4,30.17,NNW,344,0.0,0.0,81,0.00,,CLR,0.00,VWS V14.01,2013-01-22 07:10:00,
2013-01-22 01:16:00,42.6,37.5,30.17,NNW,344,0.0,0.0,82,0.00,,CLR,0.00,VWS V14.01,2013-01-22 07:16:00,
2013-01-22 01:21:00,42.5,37.4,30.17,NNW,344,0.0,0.0,82,0.00,,CLR,0.00,VWS V14.01,2013-01-22 07:21:00,
2013-01-22 01:26:00,42.2,36.8,30.17,NNW,344,0.0,0.0,81,0.00,,CLR,0.00,VWS V14.01,2013-01-22 07:26:00,
2013-01-22 01:31:00,42.1,37.0,30.16,NNW,344,0.0,0.0,82,0.00,,CLR,0.00,VWS V14.01,2013-01-22 07:31:00,
2013-01-22 01:36:00,41.9,36.8,30.16,NNW,344,0.0,0.0,82,0.00,,CLR,0.00,VWS V14.01,2013-01-22 07:36:00,
2013-01-22 01:41:00,41.8,37.0,30.16,NNW,344,0.0,0.0,83,0.00,,CLR,0.00,VWS V14.01,2013-01-22 07:41:00,
2013-01-22 01:46:00,41.8,37.0,30.16,NNW,344,0.0,0.0,83,0.00,,CLR,0.00,VWS V14.01,2013-01-22 07:46:00,
2013-01-22 01:52:00,41.8,37.0,30.16,NNW,344,0.0,0.0,83,0.00,,CLR,0.00,VWS V14.01,2013-01-22 07:52:00,
2013-01-22 01:57:00,41.8,37.0,30.16,NNW,344,0.0,0.0,83,0.00,,CLR,0.00,VWS V14.01,2013-01-22 07:57:00,
2013-01-22 02:02:00,41.8,37.3,30.17,NNW,344,0.0,0.0,84,0.00,,CLR,0.00,VWS V14.01,2013-01-22 08:02:00,
2013-01-22 02:07:00,41.8,37.3,30.17,NNW,344,0.0,0.0,84,0.00,,CLR,0.00,VWS V14.01,2013-01-22 08:07:00,
2013-01-22 02:12:00,41.8,37.3,30.17,NNW,344,0.0,0.0,84,0.00,,CLR,0.00,VWS V14.01,2013-01-22 08:12:00,
2013-01-22 02:17:00,41.8,37.3,30.17,NNW,344,0.0,0.0,84,0.00,,CLR,0.00,VWS V14.01,2013-01-22 08:17:00,
2013-01-22 02:22:00,41.6,37.1,30.17,NNW,344,0.0,0.0,84,0.00,,CLR,0.00,VWS V14.01,2013-01-22 08:22:00,
2013-01-22 02:27:00,41.6,37.1,30.17,NNW,344,0.0,0.0,84,0.00,,CLR,0.00,VWS V14.01,2013-01-22 08:27:00,
2013-01-22 02:32:00,41.5,37.0,30.17,NNW,344,0.0,0.0,84,0.00,,CLR,0.00,VWS V14.01,2013-01-22 08:32:00,
2013-01-22 02:38:00,41.3,36.8,30.17,NNW,344,0.0,0.0,84,0.00,,CLR,0.00,VWS V14.01,2013-01-22 08:38:00,
2013-01-22 02:43:00,41.3,36.8,30.17,NNW,344,0.0,0.0,84,0.00,,CLR,0.00,VWS V14.01,2013-01-22 08:43:00,
2013-01-22 02:48:00,41.1,36.6,30.17,NNW,344,0.0,0.0,84,0.00,,CLR,0.00,VWS V14.01,2013-01-22 08:48:00,
2013-01-22 02:53:00,40.9,36.5,30.17,NNW,344,0.0,0.0,84,0.00,,CLR,0.00,VWS V14.01,2013-01-22 08:53:00,
2013-01-22 02:58:00,40.8,36.3,30.17,NNW,344,0.0,0.0,84,0.00,,CLR,0.00,VWS V14.01,2013-01-22 08:58:00,
2013-01-22 03:04:00,40.6,36.2,30.17,NNW,344,0.0,0.0,84,0.00,,CLR,0.00,VWS V14.01,2013-01-22 09:04:00,
2013-01-22 03:09:00,40.5,36.3,30.17,NNW,344,0.0,0.0,85,0.00,,CLR,0.00,VWS V14.01,2013-01-22 09:09:00,
2013-01-22 03:14:00,40.3,36.2,30.17,NNW,344,0.0,0.0,85,0.00,,CLR,0.00,VWS V14.01,2013-01-22 09:14:00,
2013-01-22 03:19:00,40.3,36.2,30.17,NNW,344,0.0,0.0,85,0.00,,CLR,0.00,VWS V14.01,2013-01-22 09:19:00,
2013-01-22 03:24:00,40.3,36.2,30.17,NNW,344,0.0,0.0,85,0.00,,CLR,0.00,VWS V14.01,2013-01-22 09:24:00,
2013-01-22 03:29:00,40.3,36.2,30.17,NNW,344,0.0,0.0,85,0.00,,CLR,0.00,VWS V14.01,2013-01-22 09:29:00,
2013-01-22 03:34:00,40.3,36.5,30.17,NNW,344,0.0,0.0,86,0.00,,CLR,0.00,VWS V14.01,2013-01-22 09:34:00,
2013-01-22 03:39:00,40.3,36.5,30.17,NNW,344,0.0,0.0,86,0.00,,CLR,0.00,VWS V14.01,2013-01-22 09:39:00,
2013-01-22 03:44:00,40.3,36.5,30.17,NNW,344,0.0,0.0,86,0.00,,CLR,0.00,VWS V14.01,2013-01-22 09:44:00,
2013-01-22 03:50:00,40.3,36.5,30.17,NNW,344,0.0,0.0,86,0.00,,CLR,0.00,VWS V14.01,2013-01-22 09:50:00,
2013-01-22 03:55:00,40.3,36.5,30.17,NNW,344,0.0,0.0,86,0.00,,CLR,0.00,VWS V14.01,2013-01-22 09:55:00,
2013-01-22 04:00:00,40.3,36.5,30.17,NNW,344,0.0,0.0,86,0.00,,CLR,0.00,VWS V14.01,2013-01-22 10:00:00,
2013-01-22 04:05:00,40.1,36.3,30.17,NNW,344,0.0,0.0,86,0.00,,CLR,0.00,VWS V14.01,2013-01-22 10:05:00,
2013-01-22 04:10:00,39.6,35.8,30.17,NNW,344,0.0,0.0,86,0.00,,CLR,0.00,VWS V14.01,2013-01-22 10:10:00,
2013-01-22 04:15:00,39.6,36.1,30.18,NNW,344,0.0,0.0,87,0.00,,CLR,0.00,VWS V14.01,2013-01-22 10:15:00,
2013-01-22 04:20:00,39.8,36.2,30.18,NNW,344,0.0,0.0,87,0.00,,CLR,0.00,VWS V14.01,2013-01-22 10:20:00,
2013-01-22 04:25:00,39.9,36.3,30.18,NNW,344,0.0,0.0,87,0.00,,CLR,0.00,VWS V14.01,2013-01-22 10:25:00,
2013-01-22 04:30:00,39.9,36.3,30.17,NNW,344,0.0,0.0,87,0.00,,CLR,0.00,VWS V14.01,2013-01-22 10:30:00,
2013-01-22 04:36:00,39.9,36.3,30.17,NNW,344,0.0,0.0,87,0.00,,CLR,0.00,VWS V14.01,2013-01-22 10:36:00,
2013-01-22 04:41:00,39.9,36.3,30.17,NNW,344,0.0,0.0,87,0.00,,CLR,0.00,VWS V14.01,2013-01-22 10:41:00,
2013-01-22 04:46:00,39.8,36.2,30.17,NNW,344,0.0,0.0,87,0.00,,CLR,0.00,VWS V14.01,2013-01-22 10:46:00,
2013-01-22 04:51:00,39.6,36.1,30.17,NNW,344,0.0,0.0,87,0.00,,CLR,0.00,VWS V14.01,2013-01-22 10:51:00,
2013-01-22 04:56:00,39.5,36.2,30.17,NNW,344,0.0,0.0,88,0.00,,CLR,0.00,VWS V14.01,2013-01-22 10:56:00,
2013-01-22 05:01:00,39.5,36.0,30.18,NNW,344,0.0,0.0,87,0.00,,CLR,0.00,VWS V14.01,2013-01-22 11:01:00,
2013-01-22 05:06:00,39.2,36.0,30.18,NNW,344,0.0,0.0,88,0.00,,CLR,0.00,VWS V14.01,2013-01-22 11:06:00,
2013-01-22 05:11:00,39.2,36.0,30.18,NNW,344,0.0,0.0,88,0.00,,CLR,0.00,VWS V14.01,2013-01-22 11:11:00,
2013-01-22 05:16:00,39.1,35.6,30.19,NNW,344,0.0,0.0,87,0.00,,CLR,0.00,VWS V14.01,2013-01-22 11:16:00,
2013-01-22 05:21:00,38.9,35.7,30.19,NNW,344,0.0,0.0,88,0.00,,CLR,0.00,VWS V14.01,2013-01-22 11:21:00,
2013-01-22 05:27:00,39.2,36.0,30.19,NNW,344,0.0,0.0,88,0.00,,CLR,0.00,VWS V14.01,2013-01-22 11:27:00,
2013-01-22 05:32:00,39.3,36.0,30.19,NNW,344,0.0,0.0,88,0.00,,CLR,0.00,VWS V14.01,2013-01-22 11:32:00,
2013-01-22 05:37:00,39.5,36.2,30.19,NNW,344,0.0,0.0,88,0.00,,CLR,0.00,VWS V14.01,2013-01-22 11:37:00,
2013-01-22 05:42:00,39.8,36.8,30.19,NNW,344,0.0,0.0,89,0.00,,CLR,0.00,VWS V14.01,2013-01-22 11:42:00,
2013-01-22 05:47:00,39.8,36.5,30.19,NNW,344,0.0,0.0,88,0.00,,CLR,0.00,VWS V14.01,2013-01-22 11:47:00,
2013-01-22 05:52:00,39.9,36.6,30.19,NNW,344,0.0,0.0,88,0.00,,CLR,0.00,VWS V14.01,2013-01-22 11:52:00,
2013-01-22 05:57:00,40.1,36.8,30.19,NNW,344,0.0,0.0,88,0.00,,CLR,0.00,VWS V14.01,2013-01-22 11:57:00,
2013-01-22 06:02:00,40.2,37.2,30.21,NNW,344,0.0,0.0,89,0.00,,CLR,0.00,VWS V14.01,2013-01-22 12:02:00,
2013-01-22 06:07:00,40.3,37.3,30.21,NNW,344,0.0,0.0,89,0.00,,CLR,0.00,VWS V14.01,2013-01-22 12:07:00,
2013-01-22 06:13:00,40.6,37.6,30.21,NNW,344,0.0,0.0,89,0.00,,OVC048,0.00,VWS V14.01,2013-01-22 12:13:00,
2013-01-22 06:18:00,40.6,37.3,30.21,NNW,344,0.0,0.0,88,0.00,,OVC048,0.00,VWS V14.01,2013-01-22 12:18:00,
2013-01-22 06:23:00,40.6,37.3,30.21,NNW,344,0.0,0.0,88,0.00,,OVC048,0.00,VWS V14.01,2013-01-22 12:23:00,
2013-01-22 06:28:00,40.8,37.5,30.21,NNW,344,0.0,0.0,88,0.00,,OVC048,0.00,VWS V14.01,2013-01-22 12:28:00,
2013-01-22 06:33:00,40.8,37.5,30.21,NNW,344,0.0,0.0,88,0.00,,OVC048,0.00,VWS V14.01,2013-01-22 12:33:00,
2013-01-22 06:38:00,40.6,37.3,30.21,NNW,344,0.0,0.0,88,0.00,,OVC048,0.00,VWS V14.01,2013-01-22 12:38:00,
2013-01-22 06:43:00,40.6,37.3,30.21,NNW,344,0.0,0.0,88,0.00,,OVC048,0.00,VWS V14.01,2013-01-22 12:43:00,
2013-01-22 06:48:00,40.6,37.3,30.22,NNW,344,0.0,0.0,88,0.00,,OVC048,0.00,VWS V14.01,2013-01-22 12:48:00,
2013-01-22 06:54:00,40.5,37.2,30.22,NNW,344,0.0,0.0,88,0.00,,OVC048,0.00,VWS V14.01,2013-01-22 12:54:00,
2013-01-22 06:59:00,40.5,37.2,30.22,NNW,344,0.0,0.0,88,0.00,,OVC048,0.00,VWS V14.01,2013-01-22 12:59:00,
2013-01-22 07:04:00,40.5,37.2,30.22,NNW,344,0.0,0.0,88,0.00,,OVC048,0.00,VWS V14.01,2013-01-22 13:04:00,
2013-01-22 07:09:00,40.5,37.2,30.22,NNW,344,0.0,0.0,88,0.00,,OVC048,0.00,VWS V14.01,2013-01-22 13:09:00,
2013-01-22 07:14:00,40.5,37.2,30.23,NNW,344,0.0,0.0,88,0.00,,OVC075,0.00,VWS V14.01,2013-01-22 13:14:00,
2013-01-22 07:19:00,40.6,37.3,30.23,NNW,344,0.0,0.0,88,0.00,,OVC075,0.00,VWS V14.01,2013-01-22 13:19:00,
2013-01-22 07:25:00,40.6,37.6,30.23,NNW,344,0.0,0.0,89,0.00,,OVC075,0.00,VWS V14.01,2013-01-22 13:25:00,
2013-01-22 07:30:00,40.8,37.8,30.24,NNW,344,0.0,0.0,89,0.00,,OVC075,0.00,VWS V14.01,2013-01-22 13:30:00,
2013-01-22 07:35:00,40.8,37.8,30.24,NNW,344,0.0,0.0,89,0.00,,OVC075,0.00,VWS V14.01,2013-01-22 13:35:00,
2013-01-22 07:40:00,40.9,37.9,30.24,NNW,344,0.0,0.0,89,0.00,,OVC075,0.00,VWS V14.01,2013-01-22 13:40:00,
2013-01-22 07:45:00,41.1,38.1,30.25,NNW,344,0.0,0.0,89,0.00,,OVC075,0.00,VWS V14.01,2013-01-22 13:45:00,
2013-01-22 07:50:00,41.3,38.3,30.25,NNW,344,0.0,0.0,89,0.00,,OVC075,0.00,VWS V14.01,2013-01-22 13:50:00,
2013-01-22 07:55:00,41.5,38.5,30.25,NNW,344,0.0,0.0,89,0.00,,OVC075,0.00,VWS V14.01,2013-01-22 13:55:00,
2013-01-22 08:00:00,41.6,38.6,30.24,NNW,344,0.0,0.0,89,0.00,,OVC075,0.00,VWS V14.01,2013-01-22 14:00:00,
2013-01-22 08:05:00,41.8,38.8,30.24,NNW,344,0.0,0.0,89,0.00,,OVC075,0.00,VWS V14.01,2013-01-22 14:05:00,
2013-01-22 08:11:00,42.1,39.1,30.24,NNW,344,0.0,0.0,89,0.00,,OVC048,0.00,VWS V14.01,2013-01-22 14:11:00,
2013-01-22 08:16:00,42.2,38.9,30.24,NNW,344,0.0,0.0,88,0.00,,OVC048,0.00,VWS V14.01,2013-01-22 14:16:00,
2013-01-22 08:21:00,42.3,39.0,30.24,NNW,344,0.0,0.0,88,0.00,,OVC048,0.00,VWS V14.01,2013-01-22 14:21:00,
2013-01-22 08:26:00,42.5,39.2,30.24,NNW,344,0.0,0.0,88,0.00,,OVC048,0.00,VWS V14.01,2013-01-22 14:26:00,
2013-01-22 08:31:00,42.6,39.3,30.24,NNW,344,0.0,0.0,88,0.00,,OVC048,0.00,VWS V14.01,2013-01-22 14:31:00,
2013-01-22 08:36:00,42.9,39.3,30.24,NNW,344,0.0,0.0,87,0.00,,OVC048,0.00,VWS V14.01,2013-01-22 14:36:00,
2013-01-22 08:41:00,43.1,39.2,30.24,North,355,0.0,0.0,86,0.00,,OVC048,0.00,VWS V14.01,2013-01-22 14:41:00,
2013-01-22 08:47:00,43.5,39.6,30.25,NNE,22,0.0,0.0,86,0.00,,OVC048,0.00,VWS V14.01,2013-01-22 14:47:00,
2013-01-22 08:52:00,44.1,39.6,30.25,NNE,22,0.0,0.0,84,0.00,,OVC048,0.00,VWS V14.01,2013-01-22 14:52:00,
2013-01-22 08:57:00,44.5,39.4,30.25,NNE,22,0.0,0.0,82,0.00,,OVC048,0.00,VWS V14.01,2013-01-22 14:57:00,
2013-01-22 09:02:00,44.3,38.5,30.25,NNE,26,0.0,0.0,80,0.00,,OVC048,0.00,VWS V14.01,2013-01-22 15:02:00,
2013-01-22 09:07:00,44.9,38.8,30.25,NNE,26,0.0,0.0,79,0.00,,OVC048,0.00,VWS V14.01,2013-01-22 15:07:00,
2013-01-22 09:12:00,44.9,38.5,30.25,NE,44,0.0,0.0,78,0.00,,BKN065,0.00,VWS V14.01,2013-01-22 15:12:00,
2013-01-22 09:17:00,45.7,39.2,30.26,NE,46,0.0,0.0,78,0.00,,BKN065,0.00,VWS V14.01,2013-01-22 15:17:00,
2013-01-22 09:22:00,45.8,39.3,30.26,NE,51,0.0,0.0,78,0.00,,BKN065,0.00,VWS V14.01,2013-01-22 15:22:00,
2013-01-22 09:28:00,45.8,38.7,30.26,NE,51,0.0,0.0,76,0.00,,BKN065,0.00,VWS V14.01,2013-01-22 15:28:00,
2013-01-22 09:33:00,46.1,39.0,30.26,ENE,70,3.0,4.0,76,0.00,,BKN065,0.00,VWS V14.01,2013-01-22 15:33:00,
2013-01-22 09:38:00,46.1,39.0,30.26,ENE,71,1.0,5.0,76,0.00,,BKN065,0.00,VWS V14.01,2013-01-22 15:38:00,
2013-01-22 09:43:00,46.5,38.7,30.26,ENE,77,0.0,5.0,74,0.00,,BKN065,0.00,VWS V14.01,2013-01-22 15:43:00,
2013-01-22 09:48:00,47.4,39.5,30.26,East,101,2.0,5.0,74,0.00,,BKN065,0.00,VWS V14.01,2013-01-22 15:48:00,
2013-01-22 09:53:00,47.6,39.0,30.26,East,96,1.0,5.0,72,0.00,,BKN065,0.00,VWS V14.01,2013-01-22 15:53:00,
2013-01-22 09:58:00,47.3,39.1,30.26,ESE,105,2.0,5.0,73,0.00,,BKN065,0.00,VWS V14.01,2013-01-22 15:58:00,
2013-01-22 10:03:00,47.1,38.5,30.26,East,84,2.0,4.0,72,0.00,,BKN065,0.00,VWS V14.01,2013-01-22 16:03:00,
2013-01-22 10:08:00,47.7,38.8,30.26,East,101,1.0,4.0,71,0.00,,BKN065,0.00,VWS V14.01,2013-01-22 16:08:00,
2013-01-22 10:13:00,47.9,38.2,30.26,East,101,1.0,7.0,69,0.00,,FEW043,0.00,VWS V14.01,2013-01-22 16:13:00,
2013-01-22 10:19:00,48.0,38.7,30.25,East,87,1.0,7.0,70,0.00,,FEW043,0.00,VWS V14.01,2013-01-22 16:19:00,
2013-01-22 10:24:00,48.3,39.0,30.25,East,90,2.0,5.0,70,0.00,,FEW043,0.00,VWS V14.01,2013-01-22 16:24:00,
2013-01-22 10:29:00,48.6,38.9,30.25,East,92,2.0,6.0,69,0.00,,FEW043,0.00,VWS V14.01,2013-01-22 16:29:00,
2013-01-22 10:34:00,48.6,38.5,30.25,East,94,4.0,4.0,68,0.00,,FEW043,0.00,VWS V14.01,2013-01-22 16:34:00,
2013-01-22 10:39:00,49.1,39.4,30.25,East,101,3.0,6.0,69,0.00,,FEW043,0.00,VWS V14.01,2013-01-22 16:39:00,
2013-01-22 10:44:00,49.6,39.9,30.25,East,92,2.0,6.0,69,0.00,,FEW043,0.00,VWS V14.01,2013-01-22 16:44:00,
2013-01-22 10:49:00,49.8,40.0,30.25,SE,140,1.0,6.0,69,0.00,,FEW043,0.00,VWS V14.01,2013-01-22 16:49:00,
2013-01-22 10:54:00,50.4,39.9,30.25,SE,133,0.0,5.0,67,0.00,,FEW043,0.00,VWS V14.01,2013-01-22 16:54:00,
2013-01-22 11:00:00,50.8,40.6,30.25,East,101,2.0,5.0,68,0.00,,FEW043,0.00,VWS V14.01,2013-01-22 17:00:00,
2013-01-22 11:05:00,50.8,40.6,30.25,ESE,113,4.0,4.0,68,0.00,,FEW043,0.00,VWS V14.01,2013-01-22 17:05:00,
2013-01-22 11:10:00,50.8,40.2,30.25,SSE,163,6.0,6.0,67,0.00,,FEW043,0.00,VWS V14.01,2013-01-22 17:10:00,
2013-01-22 11:15:00,51.7,41.5,30.24,SE,133,2.0,7.0,68,0.00,,CLR,0.00,VWS V14.01,2013-01-22 17:15:00,
2013-01-22 11:20:00,51.3,40.7,30.24,SSE,157,0.0,0.0,67,0.00,,CLR,0.00,VWS V14.01,2013-01-22 17:20:00,
2013-01-22 11:25:00,51.9,41.3,30.24,SSE,159,1.0,5.0,67,0.00,,CLR,0.00,VWS V14.01,2013-01-22 17:25:00,
2013-01-22 11:30:00,52.8,42.2,30.24,SE,142,0.0,0.0,67,0.00,,CLR,0.00,VWS V14.01,2013-01-22 17:30:00,
2013-01-22 11:35:00,52.3,41.3,30.24,SE,142,0.0,2.0,66,0.00,,CLR,0.00,VWS V14.01,2013-01-22 17:35:00,
2013-01-22 11:40:00,53.1,42.1,30.24,SE,142,0.0,0.0,66,0.00,,CLR,0.00,VWS V14.01,2013-01-22 17:40:00,
2013-01-22 11:45:00,53.2,41.3,30.22,SE,134,0.0,4.0,64,0.00,,CLR,0.00,VWS V14.01,2013-01-22 17:45:00,
2013-01-22 11:51:00,53.9,42.4,30.22,SSE,150,0.0,2.0,65,0.00,,CLR,0.00,VWS V14.01,2013-01-22 17:51:00,
2013-01-22 11:56:00,54.4,42.1,30.22,SSE,150,0.0,2.0,63,0.00,,CLR,0.00,VWS V14.01,2013-01-22 17:56:00,
2013-01-22 12:01:00,54.7,42.4,30.21,SSW,194,0.0,5.0,63,0.00,,CLR,0.00,VWS V14.01,2013-01-22 18:01:00,
2013-01-22 12:06:00,55.0,43.1,30.21,SSW,194,2.0,5.0,64,0.00,,CLR,0.00,VWS V14.01,2013-01-22 18:06:00,
2013-01-22 12:11:00,55.1,43.2,30.21,SSW,194,0.0,2.0,64,0.00,,CLR,0.00,VWS V14.01,2013-01-22 18:11:00,
2013-01-22 12:16:00,55.9,43.5,30.20,South,184,0.0,4.0,63,0.00,,CLR,0.00,VWS V14.01,2013-01-22 18:16:00,
2013-01-22 12:21:00,56.2,43.8,30.20,South,184,0.0,2.0,63,0.00,,CLR,0.00,VWS V14.01,2013-01-22 18:21:00,
2013-01-22 12:26:00,56.5,43.7,30.20,South,185,4.0,4.0,62,0.00,,CLR,0.00,VWS V14.01,2013-01-22 18:26:00,
2013-01-22 12:31:00,57.3,44.0,30.19,South,185,0.0,5.0,61,0.00,,CLR,0.00,VWS V14.01,2013-01-22 18:31:00,
2013-01-22 12:36:00,57.2,44.7,30.19,SSW,211,2.0,5.0,63,0.00,,CLR,0.00,VWS V14.01,2013-01-22 18:36:00,
2013-01-22 12:41:00,57.3,44.0,30.19,SSW,192,2.0,3.0,61,0.00,,CLR,0.00,VWS V14.01,2013-01-22 18:41:00,
2013-01-22 12:47:00,58.6,44.8,30.19,SSW,208,0.0,5.0,60,0.00,,CLR,0.00,VWS V14.01,2013-01-22 18:47:00,
2013-01-22 12:52:00,58.6,46.1,30.19,SSW,208,2.0,5.0,63,0.00,,CLR,0.00,VWS V14.01,2013-01-22 18:52:00,
2013-01-22 12:57:00,59.3,45.4,30.19,SSW,209,0.0,5.0,60,0.00,,CLR,0.00,VWS V14.01,2013-01-22 18:57:00,
2013-01-22 13:02:00,59.0,45.6,30.18,South,189,0.0,4.0,61,0.00,,CLR,0.00,VWS V14.01,2013-01-22 19:02:00,
2013-01-22 13:07:00,59.3,45.9,30.18,South,188,0.0,4.0,61,0.00,,CLR,0.00,VWS V14.01,2013-01-22 19:07:00,
2013-01-22 13:12:00,59.2,45.3,30.18,SSE,163,0.0,5.0,60,0.00,,BKN049,0.00,VWS V14.01,2013-01-22 19:12:00,
2013-01-22 13:17:00,59.3,45.9,30.17,SSE,163,0.0,5.0,61,0.00,,BKN049,0.00,VWS V14.01,2013-01-22 19:17:00,
2013-01-22 13:22:00,59.8,45.5,30.17,SSE,164,0.0,2.0,59,0.00,,BKN049,0.00,VWS V14.01,2013-01-22 19:22:00,
2013-01-22 13:27:00,60.7,46.3,30.17,SSE,167,2.0,4.0,59,0.00,,BKN049,0.00,VWS V14.01,2013-01-22 19:27:00,
2013-01-22 13:32:00,60.9,46.5,30.16,SSW,194,0.0,5.0,59,0.00,,BKN049,0.00,VWS V14.01,2013-01-22 19:32:00,
2013-01-22 13:37:00,60.7,46.3,30.16,SSW,194,0.0,5.0,59,0.00,,BKN049,0.00,VWS V14.01,2013-01-22 19:37:00,
2013-01-22 13:43:00,61.5,46.6,30.16,SSW,196,4.0,4.0,58,0.00,,BKN049,0.00,VWS V14.01,2013-01-22 19:43:00,
2013-01-22 13:48:00,61.8,46.4,30.16,South,179,0.0,5.0,57,0.00,,BKN049,0.00,VWS V14.01,2013-01-22 19:48:00,
2013-01-22 13:53:00,61.6,46.2,30.16,South,179,0.0,3.0,57,0.00,,BKN049,0.00,VWS V14.01,2013-01-22 19:53:00,
2013-01-22 13:58:00,63.1,47.2,30.16,South,178,0.0,3.0,56,0.00,,BKN049,0.00,VWS V14.01,2013-01-22 19:58:00,
2013-01-22 14:03:00,63.4,47.0,30.16,South,181,4.0,5.0,55,0.00,,BKN049,0.00,VWS V14.01,2013-01-22 20:03:00,
2013-01-22 14:08:00,62.6,46.7,30.16,South,190,0.0,5.0,56,0.00,,BKN049,0.00,VWS V14.01,2013-01-22 20:08:00,
2013-01-22 14:13:00,63.7,48.2,30.16,SW,227,1.0,7.0,57,0.00,,FEW039,0.00,VWS V14.01,2013-01-22 20:13:00,
2013-01-22 14:18:00,63.7,46.3,30.15,SW,227,2.0,7.0,53,0.00,,FEW039,0.00,VWS V14.01,2013-01-22 20:18:00,
2013-01-22 14:23:00,63.1,46.7,30.15,SW,227,0.0,2.0,55,0.00,,FEW039,0.00,VWS V14.01,2013-01-22 20:23:00,
2013-01-22 14:28:00,64.0,46.5,30.15,SW,227,0.0,2.0,53,0.00,,FEW039,0.00,VWS V14.01,2013-01-22 20:28:00,
2013-01-22 14:34:00,64.0,47.0,30.15,SW,227,0.0,0.0,54,0.00,,FEW039,0.00,VWS V14.01,2013-01-22 20:34:00,
2013-01-22 14:39:00,64.8,47.3,30.15,SW,227,0.0,0.0,53,0.00,,FEW039,0.00,VWS V14.01,2013-01-22 20:39:00,
2013-01-22 14:44:00,65.5,46.9,30.15,SSW,211,1.0,5.0,51,0.00,,FEW039,0.00,VWS V14.01,2013-01-22 20:44:00,
2013-01-22 14:49:00,64.7,47.2,30.15,SSW,210,5.0,5.0,53,0.00,,FEW039,0.00,VWS V14.01,2013-01-22 20:49:00,
2013-01-22 14:54:00,64.2,47.2,30.15,SSW,209,0.0,5.0,54,0.00,,FEW039,0.00,VWS V14.01,2013-01-22 20:54:00,
2013-01-22 14:59:00,64.0,46.5,30.14,SSW,209,0.0,5.0,53,0.00,,FEW039,0.00,VWS V14.01,2013-01-22 20:59:00,
2013-01-22 15:04:00,64.3,46.8,30.14,SSW,209,0.0,0.0,53,0.00,,FEW039,0.00,VWS V14.01,2013-01-22 21:04:00,
2013-01-22 15:10:00,64.2,46.7,30.14,SSW,209,0.0,3.0,53,0.00,,FEW039,0.00,VWS V14.01,2013-01-22 21:10:00,
2013-01-22 15:15:00,64.5,47.0,30.14,SSW,209,0.0,0.0,53,0.00,,OVC065,0.00,VWS V14.01,2013-01-22 21:15:00,
2013-01-22 15:20:00,64.8,46.8,30.14,SSW,209,0.0,2.0,52,0.00,,OVC065,0.00,VWS V14.01,2013-01-22 21:20:00,
2013-01-22 15:25:00,65.3,47.8,30.14,SSE,160,2.0,5.0,53,0.00,,OVC065,0.00,VWS V14.01,2013-01-22 21:25:00,
2013-01-22 15:31:00,65.3,47.2,30.14,South,188,0.0,0.0,52,0.00,,OVC065,0.00,VWS V14.01,2013-01-22 21:31:00,
2013-01-22 15:32:00,65.3,47.2,30.14,South,181,2.0,4.0,52,0.00,,OVC065,0.00,VWS V14.01,2013-01-22 21:32:00,
2013-01-22 15:37:00,64.7,47.2,30.14,South,175,2.0,4.0,53,0.00,,OVC065,0.00,VWS V14.01,2013-01-22 21:37:00,
2013-01-22 15:42:00,64.3,47.3,30.14,SSE,161,0.0,3.0,54,0.00,,OVC065,0.00,VWS V14.01,2013-01-22 21:42:00,
2013-01-22 15:47:00,64.3,47.3,30.14,SSE,160,0.0,3.0,54,0.00,,OVC065,0.00,VWS V14.01,2013-01-22 21:47:00,
2013-01-22 15:52:00,64.2,47.2,30.14,SSE,160,0.0,3.0,54,0.00,,OVC065,0.00,VWS V14.01,2013-01-22 21:52:00,
2013-01-22 15:57:00,64.2,47.2,30.14,SSE,160,0.0,3.0,54,0.00,,OVC065,0.00,VWS V14.01,2013-01-22 21:57:00,
2013-01-22 16:02:00,63.9,47.0,30.14,SSE,160,2.0,3.0,54,0.00,,OVC065,0.00,VWS V14.01,2013-01-22 22:02:00,
2013-01-22 16:07:00,63.7,46.8,30.14,SSE,160,0.0,3.0,54,0.00,,OVC065,0.00,VWS V14.01,2013-01-22 22:07:00,
2013-01-22 16:12:00,63.9,47.0,30.14,SSE,160,0.0,0.0,54,0.00,,CLR,0.00,VWS V14.01,2013-01-22 22:12:00,
2013-01-22 16:18:00,64.0,47.5,30.13,SSE,160,0.0,0.0,55,0.00,,CLR,0.00,VWS V14.01,2013-01-22 22:18:00,
2013-01-22 16:23:00,64.8,47.8,30.13,SSE,160,0.0,0.0,54,0.00,,CLR,0.00,VWS V14.01,2013-01-22 22:23:00,
2013-01-22 16:28:00,64.7,47.7,30.13,SSE,160,0.0,0.0,54,0.00,,CLR,0.00,VWS V14.01,2013-01-22 22:28:00,
2013-01-22 16:33:00,64.5,47.0,30.14,SSE,160,0.0,0.0,53,0.00,,CLR,0.00,VWS V14.01,2013-01-22 22:33:00,
2013-01-22 16:38:00,64.2,47.2,30.14,SSE,160,0.0,0.0,54,0.00,,CLR,0.00,VWS V14.01,2013-01-22 22:38:00,
2013-01-22 16:43:00,64.2,47.2,30.14,SSE,160,0.0,0.0,54,0.00,,CLR,0.00,VWS V14.01,2013-01-22 22:43:00,
2013-01-22 16:48:00,63.9,47.0,30.13,SSE,161,0.0,0.0,54,0.00,,CLR,0.00,VWS V14.01,2013-01-22 22:48:00,
2013-01-22 16:53:00,64.0,47.5,30.13,SSE,160,0.0,0.0,55,0.00,,CLR,0.00,VWS V14.01,2013-01-22 22:53:00,
2013-01-22 16:58:00,63.7,46.8,30.13,SSE,160,0.0,0.0,54,0.00,,CLR,0.00,VWS V14.01,2013-01-22 22:58:00,
2013-01-22 17:03:00,63.7,47.2,30.13,SSE,160,0.0,0.0,55,0.00,,CLR,0.00,VWS V14.01,2013-01-22 23:03:00,
2013-01-22 17:08:00,63.1,47.6,30.13,SSE,160,0.0,0.0,57,0.00,,CLR,0.00,VWS V14.01,2013-01-22 23:08:00,
2013-01-22 17:14:00,62.0,47.5,30.13,SSE,160,0.0,0.0,59,0.00,,FEW060,0.00,VWS V14.01,2013-01-22 23:14:00,
2013-01-22 17:19:00,61.8,47.8,30.13,SSE,160,0.0,0.0,60,0.00,,FEW060,0.00,VWS V14.01,2013-01-22 23:19:00,
2013-01-22 17:24:00,61.8,47.8,30.13,SSE,160,0.0,0.0,60,0.00,,FEW060,0.00,VWS V14.01,2013-01-22 23:24:00,
2013-01-22 17:29:00,61.6,47.6,30.13,SSE,160,0.0,0.0,60,0.00,,FEW060,0.00,VWS V14.01,2013-01-22 23:29:00,
2013-01-22 17:34:00,61.6,47.6,30.12,SSE,160,0.0,0.0,60,0.00,,FEW060,0.00,VWS V14.01,2013-01-22 23:34:00,
2013-01-22 17:39:00,61.8,47.8,30.12,SSE,160,0.0,0.0,60,0.00,,FEW060,0.00,VWS V14.01,2013-01-22 23:39:00,
2013-01-22 17:44:00,61.8,47.8,30.12,SSE,160,0.0,0.0,60,0.00,,FEW060,0.00,VWS V14.01,2013-01-22 23:44:00,
2013-01-22 17:49:00,61.8,48.2,30.12,SSE,160,0.0,0.0,61,0.00,,FEW060,0.00,VWS V14.01,2013-01-22 23:49:00,
2013-01-22 17:54:00,61.8,48.2,30.12,SSE,160,0.0,0.0,61,0.00,,FEW060,0.00,VWS V14.01,2013-01-22 23:54:00,
2013-01-22 17:59:00,61.6,48.5,30.13,SSE,160,0.0,0.0,62,0.00,,FEW060,0.00,VWS V14.01,2013-01-22 23:59:00,
2013-01-22 18:04:00,61.5,47.9,30.13,SSE,160,0.0,0.0,61,0.00,,FEW060,0.00,VWS V14.01,2013-01-23 00:04:00,
2013-01-22 18:10:00,61.2,48.1,30.13,SSE,160,0.0,0.0,62,0.00,,FEW060,0.00,VWS V14.01,2013-01-23 00:10:00,
2013-01-22 18:15:00,60.9,47.8,30.13,SSE,160,0.0,0.0,62,0.00,,FEW065,0.00,VWS V14.01,2013-01-23 00:15:00,
2013-01-22 18:20:00,60.4,47.3,30.13,SSE,160,0.0,0.0,62,0.00,,FEW065,0.00,VWS V14.01,2013-01-23 00:20:00,
2013-01-22 18:25:00,59.9,47.3,30.13,SSE,160,0.0,0.0,63,0.00,,FEW065,0.00,VWS V14.01,2013-01-23 00:25:00,
2013-01-22 18:30:00,59.5,47.7,30.13,SSE,160,0.0,0.0,65,0.00,,FEW065,0.00,VWS V14.01,2013-01-23 00:30:00,
2013-01-22 18:35:00,59.2,47.5,30.13,SSE,160,0.0,0.0,65,0.00,,FEW065,0.00,VWS V14.01,2013-01-23 00:35:00,
2013-01-22 18:40:00,58.7,47.4,30.13,SSE,160,0.0,0.0,66,0.00,,FEW065,0.00,VWS V14.01,2013-01-23 00:40:00,
2013-01-22 18:45:00,58.3,47.8,30.14,SSE,160,0.0,0.0,68,0.00,,FEW065,0.00,VWS V14.01,2013-01-23 00:45:00,
2013-01-22 18:50:00,58.0,47.5,30.14,SSE,160,0.0,0.0,68,0.00,,FEW065,0.00,VWS V14.01,2013-01-23 00:50:00,
2013-01-22 18:55:00,57.3,47.2,30.14,SSE,160,0.0,0.0,69,0.00,,FEW065,0.00,VWS V14.01,2013-01-23 00:55:00,
2013-01-22 19:00:00,57.0,47.3,30.14,SSE,161,0.0,0.0,70,0.00,,FEW065,0.00,VWS V14.01,2013-01-23 01:00:00,
2013-01-22 19:05:00,56.6,46.9,30.14,SSE,160,0.0,0.0,70,0.00,,FEW065,0.00,VWS V14.01,2013-01-23 01:05:00,
2013-01-22 19:10:00,56.2,46.9,30.14,SSE,160,0.0,0.0,71,0.00,,SCT065,0.00,VWS V14.01,2013-01-23 01:10:00,
2013-01-22 19:15:00,55.7,46.8,30.14,SSE,160,0.0,0.0,72,0.00,,SCT065,0.00,VWS V14.01,2013-01-23 01:15:00,
2013-01-22 19:21:00,55.6,47.1,30.14,SSE,160,0.0,0.0,73,0.00,,SCT065,0.00,VWS V14.01,2013-01-23 01:21:00,
2013-01-22 19:26:00,55.6,47.5,30.14,SSE,160,0.0,0.0,74,0.00,,SCT065,0.00,VWS V14.01,2013-01-23 01:26:00,
2013-01-22 19:31:00,55.4,47.3,30.14,SSE,160,0.0,0.0,74,0.00,,SCT065,0.00,VWS V14.01,2013-01-23 01:31:00,
2013-01-22 19:36:00,55.1,46.6,30.14,SSE,160,0.0,0.0,73,0.00,,SCT065,0.00,VWS V14.01,2013-01-23 01:36:00,
2013-01-22 19:41:00,54.7,46.2,30.14,SSE,160,0.0,0.0,73,0.00,,SCT065,0.00,VWS V14.01,2013-01-23 01:41:00,
2013-01-22 19:46:00,54.2,46.1,30.14,SSE,160,0.0,0.0,74,0.00,,SCT065,0.00,VWS V14.01,2013-01-23 01:46:00,
2013-01-22 19:52:00,53.9,45.8,30.14,SSE,160,0.0,0.0,74,0.00,,SCT065,0.00,VWS V14.01,2013-01-23 01:52:00,
2013-01-22 19:57:00,53.5,45.8,30.14,SSE,160,0.0,0.0,75,0.00,,SCT065,0.00,VWS V14.01,2013-01-23 01:57:00,
2013-01-22 20:02:00,53.3,45.9,30.15,SSE,160,0.0,0.0,76,0.00,,SCT065,0.00,VWS V14.01,2013-01-23 02:02:00,
2013-01-22 20:07:00,53.5,46.5,30.15,SSE,160,0.0,0.0,77,0.00,,SCT065,0.00,VWS V14.01,2013-01-23 02:07:00,
2013-01-22 20:12:00,53.3,46.6,30.15,SSE,160,0.0,0.0,78,0.00,,FEW065,0.00,VWS V14.01,2013-01-23 02:12:00,
2013-01-22 20:17:00,53.6,46.9,30.16,SSE,160,0.0,0.0,78,0.00,,FEW065,0.00,VWS V14.01,2013-01-23 02:17:00,
2013-01-22 20:22:00,53.8,47.1,30.16,SSE,160,0.0,0.0,78,0.00,,FEW065,0.00,VWS V14.01,2013-01-23 02:22:00,
2013-01-22 20:27:00,53.9,47.2,30.16,SSE,160,0.0,0.0,78,0.00,,FEW065,0.00,VWS V14.01,2013-01-23 02:27:00,
2013-01-22 20:32:00,54.2,47.2,30.16,SSE,160,0.0,0.0,77,0.00,,FEW065,0.00,VWS V14.01,2013-01-23 02:32:00,
2013-01-22 20:38:00,54.4,47.0,30.16,SSE,160,0.0,0.0,76,0.00,,FEW065,0.00,VWS V14.01,2013-01-23 02:38:00,
2013-01-22 20:43:00,54.4,47.3,30.16,SSE,160,0.0,0.0,77,0.00,,FEW065,0.00,VWS V14.01,2013-01-23 02:43:00,
2013-01-22 20:48:00,54.4,47.0,30.16,SSE,160,0.0,0.0,76,0.00,,FEW065,0.00,VWS V14.01,2013-01-23 02:48:00,
2013-01-22 20:53:00,54.4,47.0,30.16,SSE,160,0.0,0.0,76,0.00,,FEW065,0.00,VWS V14.01,2013-01-23 02:53:00,
2013-01-22 20:58:00,54.4,47.0,30.16,SSE,160,0.0,0.0,76,0.00,,FEW065,0.00,VWS V14.01,2013-01-23 02:58:00,
2013-01-22 21:03:00,54.5,47.1,30.16,SSE,160,0.0,0.0,76,0.00,,FEW065,0.00,VWS V14.01,2013-01-23 03:03:00,
2013-01-22 21:08:00,54.5,47.1,30.16,SSE,160,0.0,0.0,76,0.00,,FEW065,0.00,VWS V14.01,2013-01-23 03:08:00,
2013-01-22 21:13:00,54.4,47.0,30.16,SSE,160,0.0,0.0,76,0.00,,SCT070,0.00,VWS V14.01,2013-01-23 03:13:00,
2013-01-22 21:18:00,54.4,47.0,30.16,SSE,160,0.0,0.0,76,0.00,,SCT070,0.00,VWS V14.01,2013-01-23 03:18:00,
2013-01-22 21:23:00,54.5,47.1,30.16,SSE,160,0.0,0.0,76,0.00,,SCT070,0.00,VWS V14.01,2013-01-23 03:23:00,
2013-01-22 21:28:00,54.7,47.3,30.16,SSE,160,1.0,2.0,76,0.00,,SCT070,0.00,VWS V14.01,2013-01-23 03:28:00,
2013-01-22 21:33:00,54.7,47.3,30.16,SSE,160,0.0,0.0,76,0.00,,SCT070,0.00,VWS V14.01,2013-01-23 03:33:00,
2013-01-22 21:39:00,54.8,47.4,30.16,SSE,160,0.0,1.0,76,0.00,,SCT070,0.00,VWS V14.01,2013-01-23 03:39:00,
2013-01-22 21:44:00,55.1,47.3,30.16,ESE,113,0.0,4.0,75,0.00,,SCT070,0.00,VWS V14.01,2013-01-23 03:44:00,
2013-01-22 21:49:00,55.3,47.5,30.16,ESE,113,0.0,4.0,75,0.00,,SCT070,0.00,VWS V14.01,2013-01-23 03:49:00,
2013-01-22 21:54:00,55.3,47.2,30.16,ESE,113,0.0,0.0,74,0.00,,SCT070,0.00,VWS V14.01,2013-01-23 03:54:00,
2013-01-22 21:59:00,55.4,47.3,30.16,ESE,113,0.0,0.0,74,0.00,,SCT070,0.00,VWS V14.01,2013-01-23 03:59:00,
2013-01-22 22:04:00,55.4,47.3,30.16,ESE,114,0.0,3.0,74,0.00,,SCT070,0.00,VWS V14.01,2013-01-23 04:04:00,
2013-01-22 22:09:00,55.4,47.3,30.16,ESE,114,1.0,3.0,74,0.00,,SCT070,0.00,VWS V14.01,2013-01-23 04:09:00,
2013-01-22 22:14:00,55.4,47.3,30.15,ESE,114,0.0,3.0,74,0.00,,FEW065,0.00,VWS V14.01,2013-01-23 04:14:00,
2013-01-22 22:19:00,55.4,47.3,30.15,ESE,114,0.0,3.0,74,0.00,,FEW065,0.00,VWS V14.01,2013-01-23 04:19:00,
2013-01-22 22:24:00,55.4,47.3,30.15,ESE,114,0.0,2.0,74,0.00,,FEW065,0.00,VWS V14.01,2013-01-23 04:24:00,
2013-01-22 22:30:00,55.4,47.3,30.16,ESE,114,0.0,2.0,74,0.00,,FEW065,0.00,VWS V14.01,2013-01-23 04:30:00,
2013-01-22 22:35:00,55.4,47.3,30.16,ESE,114,0.0,0.0,74,0.00,,FEW065,0.00,VWS V14.01,2013-01-23 04:35:00,
2013-01-22 22:40:00,55.4,47.3,30.16,ESE,114,0.0,0.0,74,0.00,,FEW065,0.00,VWS V14.01,2013-01-23 04:40:00,
2013-01-22 22:45:00,55.4,47.6,30.16,ESE,114,0.0,0.0,75,0.00,,FEW065,0.00,VWS V14.01,2013-01-23 04:45:00,
2013-01-22 22:50:00,55.4,47.6,30.16,ESE,114,0.0,2.0,75,0.00,,FEW065,0.00,VWS V14.01,2013-01-23 04:50:00,
2013-01-22 22:55:00,55.4,47.6,30.16,ESE,114,0.0,0.0,75,0.00,,FEW065,0.00,VWS V14.01,2013-01-23 04:55:00,
2013-01-22 23:00:00,55.4,48.0,30.16,ESE,114,0.0,0.0,76,0.00,,FEW065,0.00,VWS V14.01,2013-01-23 05:00:00,
2013-01-22 23:03:00,55.4,48.0,30.16,ESE,114,0.0,0.0,76,0.00,,FEW065,0.00,VWS V14.01,2013-01-23 05:03:00,
2013-01-22 23:04:00,55.4,48.0,30.16,ESE,114,0.0,0.0,76,0.00,,FEW065,0.00,VWS V14.01,2013-01-23 05:04:00,
2013-01-22 23:09:00,55.6,48.2,30.16,ESE,114,0.0,0.0,76,0.00,,FEW065,0.00,VWS V14.01,2013-01-23 05:09:00,
2013-01-22 23:14:00,55.4,48.0,30.16,ESE,114,0.0,0.0,76,0.00,,CLR,0.00,VWS V14.01,2013-01-23 05:14:00,
2013-01-22 23:19:00,55.4,48.0,30.16,ESE,115,2.0,4.0,76,0.00,,CLR,0.00,VWS V14.01,2013-01-23 05:19:00,
2013-01-22 23:24:00,55.4,48.0,30.16,ESE,115,0.0,2.0,76,0.00,,CLR,0.00,VWS V14.01,2013-01-23 05:24:00,
2013-01-22 23:29:00,55.3,47.9,30.16,ESE,115,0.0,2.0,76,0.00,,CLR,0.00,VWS V14.01,2013-01-23 05:29:00,
2013-01-22 23:34:00,55.3,48.2,30.16,ESE,115,0.0,3.0,77,0.00,,CLR,0.00,VWS V14.01,2013-01-23 05:34:00,
2013-01-22 23:39:00,55.3,48.2,30.16,ESE,115,0.0,3.0,77,0.00,,CLR,0.00,VWS V14.01,2013-01-23 05:39:00,
2013-01-22 23:45:00,55.1,48.0,30.16,ESE,115,0.0,0.0,77,0.00,,CLR,0.00,VWS V14.01,2013-01-23 05:45:00,
2013-01-22 23:50:00,55.1,48.0,30.16,ESE,115,0.0,0.0,77,0.00,,CLR,0.00,VWS V14.01,2013-01-23 05:50:00,
2013-01-22 23:55:00,55.0,48.3,30.16,SSE,165,0.0,5.0,78,0.00,,CLR,0.00,VWS V14.01,2013-01-23 05:55:00,